Lubbock, TX

12:13 PM CST on November 15, 2019 (GMT -0600)
Lubbock International

Weather History for KLBB - September, 2019

Change the Weather History Date:

Sunday, September 22, 2019

  Actual Average Record
Temperature  
Mean Temperature 74 °F 70 °F  
Max Temperature 82 °F 83 °F 98 °F (1977)
Min Temperature 66 °F 56 °F 40 °F (1995)
Degree Days  
Heating Degree Days 0 1  
Month to date heating degree days 0 9  
Since 1 July heating degree days 0 9  
Cooling Degree Days 10 6  
Month to date cooling degree days 283 186  
Year to date cooling degree days 2001 1712  
Growing Degree Days 24 (Base 50)    
Moisture  
Dew Point 64 °F    
Average Humidity 75    
Maximum Humidity 93    
Minimum Humidity 42    
Precipitation  
Precipitation 0.00 in 0.09 in 2.75 in (1915)
Month to date precipitation 4.60 1.89  
Year to date precipitation 20.19 14.96  
Snow  
Snow 0.00 in 0.00 in 0.00 in (2002)
Month to date snowfall 0.0 0.0  
Since 1 July snowfall 0.0 0.0  
Since 1 September snowfall 0.0 0.0  
Snow Depth 0.00 in    
Sea Level Pressure  
Sea Level Pressure 29.93 in    
Wind  
Wind Speed 9 mph ()    
Max Wind Speed 18 mph    
Max Gust Speed 24 mph    
Visibility 9.8 miles    
Events      
T = Trace of Precipitation, MM = Missing Value Source: Averaged Metar Reports

Daily Weather History Graph

Daily Weather History Graph

Search for Another Location

Airport or City:

Astronomy

Sep. 22, 2019 Rise Set
Actual Time 7:35 AM CDT 7:44 PM CDT
Civil Twilight 7:10 AM CDT 8:09 PM CDT
Nautical Twilight 6:41 AM CDT 8:38 PM CDT
Astronomical Twilight 6:12 AM CDT 9:07 PM CDT
Moon 12:43 AM CDT (9/22) 3:23 PM CDT (9/22)
Length of Visible Light 12h 58m
Length of Day
12h 08m
Last Quarter, 44% of the Moon is Illuminated
Sep 22
Last Quarter
Sep 28
New
Oct 5
First Quarter
Oct 13
Full
Oct 21
Last Quarter

Hourly Weather History & Observations

Time (CDT) Temp. Heat Index Dew Point Humidity Pressure Visibility Wind Dir Wind Speed Gust Speed Precip Events Conditions
12:44 AM 68.0 °F - 66.0 °F 93% 30.00 in 10.0 mi South 8.1 mph - N/A   Mostly Cloudy
12:53 AM 68.0 °F - 66.0 °F 93% 29.88 in 10.0 mi South 8.1 mph - N/A   Mostly Cloudy
1:53 AM 70.0 °F - 66.9 °F 90% 29.87 in 8.0 mi SSW 13.8 mph - N/A   Mostly Cloudy
2:53 AM 70.0 °F - 66.0 °F 87% 29.88 in 8.0 mi SSW 12.7 mph - N/A   Overcast
3:53 AM 69.1 °F - 66.0 °F 90% 29.87 in 8.0 mi SSW 13.8 mph - N/A   Mostly Cloudy
4:53 AM 69.1 °F - 66.0 °F 90% 29.86 in 9.0 mi SW 9.2 mph - N/A   Mostly Cloudy
5:17 AM 69.1 °F - 64.9 °F 87% 29.99 in 10.0 mi SW 11.5 mph - N/A   Mostly Cloudy
5:53 AM 68.0 °F - 64.9 °F 90% 29.88 in 10.0 mi SW 12.7 mph - N/A   Mostly Cloudy
6:31 AM 68.0 °F - 64.9 °F 90% 30.01 in 10.0 mi SW 10.4 mph - N/A   Mostly Cloudy
6:53 AM 68.0 °F - 64.9 °F 90% 29.89 in 10.0 mi SW 13.8 mph - N/A   Mostly Cloudy
7:25 AM 66.9 °F - 64.9 °F 93% 30.02 in 10.0 mi SW 11.5 mph - N/A   Mostly Cloudy
7:53 AM 66.9 °F - 64.9 °F 93% 29.92 in 10.0 mi SW 11.5 mph - N/A   Mostly Cloudy
8:53 AM 68.0 °F - 64.9 °F 90% 29.92 in 10.0 mi SW 9.2 mph - N/A   Mostly Cloudy
9:53 AM 73.0 °F - 66.0 °F 79% 29.92 in 10.0 mi SW 11.5 mph - N/A   Mostly Cloudy
10:53 AM 75.9 °F - 66.0 °F 71% 29.93 in 10.0 mi West 12.7 mph - N/A   Scattered Clouds
11:30 AM 78.1 °F - 64.9 °F 64% 30.06 in 10.0 mi WNW 11.5 mph - N/A   Mostly Cloudy
11:47 AM 78.8 °F - 64.4 °F 61% 30.06 in 10.0 mi WNW 12.7 mph - N/A   Mostly Cloudy
11:53 AM 79.0 °F - 64.9 °F 62% 29.93 in 10.0 mi WNW 13.8 mph - N/A   Mostly Cloudy
12:53 PM 80.1 °F 81.5 °F 63.0 °F 56% 29.92 in 10.0 mi NW 11.5 mph - N/A   Mostly Cloudy
1:53 PM 81.0 °F 81.7 °F 61.0 °F 50% 29.91 in 10.0 mi NNW 8.1 mph - N/A   Mostly Cloudy
2:53 PM 82.0 °F 83.4 °F 64.0 °F 54% 29.90 in 10.0 mi North 9.2 mph - N/A   Scattered Clouds
3:53 PM 81.0 °F 81.7 °F 61.0 °F 50% 29.90 in 10.0 mi Variable 3.5 mph - N/A   Scattered Clouds
4:53 PM 82.0 °F 82.0 °F 57.9 °F 44% 29.89 in 10.0 mi WSW 5.8 mph - N/A   Scattered Clouds
5:53 PM 82.9 °F 82.6 °F 57.9 °F 42% 29.89 in 10.0 mi NNE 3.5 mph - N/A   Scattered Clouds
6:53 PM 81.0 °F 81.1 °F 57.9 °F 45% 29.90 in 10.0 mi NE 4.6 mph - N/A   Scattered Clouds
7:53 PM 73.0 °F - 63.0 °F 71% 29.93 in 10.0 mi NE 6.9 mph - N/A   Scattered Clouds
8:53 PM 71.1 °F - 63.0 °F 75% 29.94 in 10.0 mi NE 5.8 mph - N/A   Partly Cloudy
9:53 PM 69.1 °F - 63.0 °F 81% 29.96 in 10.0 mi ENE 6.9 mph - N/A   Partly Cloudy
10:53 PM 68.0 °F - 61.0 °F 78% 29.97 in 10.0 mi ENE 8.1 mph - N/A   Partly Cloudy
11:53 PM 68.0 °F - 61.0 °F 78% 29.96 in 10.0 mi ENE 8.1 mph - N/A   Partly Cloudy